Time,TemperatureF,DewpointF,PressureIn,WindDirection,WindDirectionDegrees,WindSpeedMPH,WindSpeedGustMPH,Humidity,HourlyPrecipIn,Conditions,Clouds,dailyrainin,SoftwareType,DateUTC
2013-01-13 00:11:00,32.7,31.0,29.82,NW,325,1.0,-999.0,92,-99.99,,,0.61,weatherlink.com 1.10,2013-01-13 06:11:00,
2013-01-13 00:26:00,32.7,31.0,29.82,NNE,15,4.0,-999.0,93,-99.99,,,0.62,weatherlink.com 1.10,2013-01-13 06:26:00,
2013-01-13 00:41:00,32.7,31.0,29.82,North,5,2.0,-999.0,93,-99.99,,,0.62,weatherlink.com 1.10,2013-01-13 06:41:00,
2013-01-13 00:56:00,32.6,31.0,29.81,North,355,6.0,-999.0,93,-99.99,,,0.62,weatherlink.com 1.10,2013-01-13 06:56:00,
2013-01-13 01:12:00,32.7,31.0,29.83,North,360,3.0,-999.0,93,-99.99,,,0.62,weatherlink.com 1.10,2013-01-13 07:12:00,
2013-01-13 01:27:00,32.6,31.0,29.83,North,355,2.0,-999.0,93,-99.99,,,0.00,weatherlink.com 1.10,2013-01-13 07:27:00,
2013-01-13 01:42:00,32.5,31.0,29.84,NNE,13,6.0,-999.0,93,-99.99,,,0.00,weatherlink.com 1.10,2013-01-13 07:42:00,
2013-01-13 01:57:00,32.3,31.0,29.85,NNW,346,2.0,-999.0,93,-99.99,,,0.00,weatherlink.com 1.10,2013-01-13 07:57:00,
2013-01-13 02:11:00,32.3,31.0,29.86,NNW,343,0.0,-999.0,93,-99.99,,,0.00,weatherlink.com 1.10,2013-01-13 08:11:00,
2013-01-13 02:26:00,32.3,31.0,29.87,NNW,345,0.0,-999.0,93,-99.99,,,0.00,weatherlink.com 1.10,2013-01-13 08:26:00,
2013-01-13 02:41:00,32.1,30.0,29.88,North,355,4.0,-999.0,93,-99.99,,,0.00,weatherlink.com 1.10,2013-01-13 08:41:00,
2013-01-13 02:56:00,32.1,30.0,29.87,NW,318,0.0,-999.0,93,-99.99,,,0.00,weatherlink.com 1.10,2013-01-13 08:56:00,
2013-01-13 03:12:00,32.1,30.0,29.88,NNW,338,0.0,-999.0,93,-99.99,,,0.00,weatherlink.com 1.10,2013-01-13 09:12:00,
2013-01-13 03:27:00,32.1,31.0,29.89,NNW,336,0.0,-999.0,94,-99.99,,,0.00,weatherlink.com 1.10,2013-01-13 09:27:00,
2013-01-13 03:42:00,32.1,31.0,29.88,NNW,338,0.0,-999.0,94,-99.99,,,0.00,weatherlink.com 1.10,2013-01-13 09:42:00,
2013-01-13 03:57:00,32.1,31.0,29.88,NNW,331,0.0,-999.0,94,-99.99,,,0.00,weatherlink.com 1.10,2013-01-13 09:57:00,
2013-01-13 04:11:00,32.3,31.0,29.89,North,5,0.0,-999.0,94,-99.99,,,0.00,weatherlink.com 1.10,2013-01-13 10:11:00,
2013-01-13 04:27:00,32.3,31.0,29.89,NNW,340,0.0,-999.0,94,-99.99,,,0.00,weatherlink.com 1.10,2013-01-13 10:27:00,
2013-01-13 04:42:00,32.4,31.0,29.89,NW,314,0.0,-999.0,94,-99.99,,,0.00,weatherlink.com 1.10,2013-01-13 10:42:00,
2013-01-13 04:57:00,32.3,31.0,29.91,NNW,333,0.0,-999.0,94,-99.99,,,0.00,weatherlink.com 1.10,2013-01-13 10:57:00,
2013-01-13 05:12:00,32.2,31.0,29.92,NW,306,0.0,-999.0,94,-99.99,,,0.00,weatherlink.com 1.10,2013-01-13 11:12:00,
2013-01-13 05:27:00,31.8,30.0,29.93,WNW,302,0.0,-999.0,94,-99.99,,,0.00,weatherlink.com 1.10,2013-01-13 11:27:00,
2013-01-13 05:42:00,31.5,30.0,29.93,NW,312,0.0,-999.0,94,-99.99,,,0.00,weatherlink.com 1.10,2013-01-13 11:42:00,
2013-01-13 05:57:00,31.4,30.0,29.92,NNW,332,0.0,-999.0,94,-99.99,,,0.00,weatherlink.com 1.10,2013-01-13 11:57:00,
2013-01-13 06:12:00,31.2,30.0,29.92,WNW,303,0.0,-999.0,94,-99.99,,,0.00,weatherlink.com 1.10,2013-01-13 12:12:00,
2013-01-13 06:27:00,31.0,30.0,29.95,WNW,288,0.0,-999.0,94,-99.99,,,0.00,weatherlink.com 1.10,2013-01-13 12:27:00,
2013-01-13 06:42:00,30.7,29.0,29.93,NW,314,0.0,-999.0,94,-99.99,,,0.00,weatherlink.com 1.10,2013-01-13 12:42:00,
2013-01-13 06:57:00,29.7,28.0,29.95,North,350,0.0,-999.0,94,-99.99,,,0.00,weatherlink.com 1.10,2013-01-13 12:57:00,
2013-01-13 07:12:00,29.3,28.0,29.95,NNW,327,0.0,-999.0,94,-99.99,,,0.00,weatherlink.com 1.10,2013-01-13 13:12:00,
2013-01-13 07:27:00,28.9,27.0,29.95,NW,311,0.0,-999.0,94,-99.99,,,0.00,weatherlink.com 1.10,2013-01-13 13:27:00,
2013-01-13 07:42:00,28.7,27.0,29.97,NW,324,0.0,-999.0,94,-99.99,,,0.00,weatherlink.com 1.10,2013-01-13 13:42:00,
2013-01-13 07:57:00,28.5,27.0,29.98,WNW,297,0.0,-999.0,94,-99.99,,,0.00,weatherlink.com 1.10,2013-01-13 13:57:00,
2013-01-13 08:12:00,28.4,27.0,29.97,NNW,331,0.0,-999.0,93,-99.99,,,0.00,weatherlink.com 1.10,2013-01-13 14:12:00,
2013-01-13 08:27:00,28.3,27.0,29.97,WNW,297,0.0,-999.0,93,-99.99,,,0.00,weatherlink.com 1.10,2013-01-13 14:27:00,
2013-01-13 08:42:00,28.1,26.0,29.96,NW,323,0.0,-999.0,93,-99.99,,,0.00,weatherlink.com 1.10,2013-01-13 14:42:00,
2013-01-13 08:57:00,28.1,26.0,29.95,NNW,338,0.0,-999.0,93,-99.99,,,0.00,weatherlink.com 1.10,2013-01-13 14:57:00,
2013-01-13 09:12:00,28.2,27.0,30.02,WNW,290,0.0,-999.0,93,-99.99,,,0.00,weatherlink.com 1.10,2013-01-13 15:12:00,
2013-01-13 09:27:00,27.8,26.0,30.03,NW,313,0.0,-999.0,92,-99.99,,,0.00,weatherlink.com 1.10,2013-01-13 15:27:00,
2013-01-13 09:42:00,27.6,26.0,30.01,NNW,348,0.0,-999.0,92,-99.99,,,0.00,weatherlink.com 1.10,2013-01-13 15:42:00,
2013-01-13 09:57:00,27.2,25.0,30.03,NNW,327,0.0,-999.0,92,-99.99,,,0.00,weatherlink.com 1.10,2013-01-13 15:57:00,
2013-01-13 10:13:00,27.4,25.0,29.99,NNW,342,0.0,-999.0,92,-99.99,,,0.00,weatherlink.com 1.10,2013-01-13 16:13:00,
2013-01-13 10:28:00,27.7,26.0,29.97,NNW,348,0.0,-999.0,92,-99.99,,,0.00,weatherlink.com 1.10,2013-01-13 16:28:00,
2013-01-13 10:43:00,27.8,26.0,29.98,NW,316,0.0,-999.0,92,-99.99,,,0.00,weatherlink.com 1.10,2013-01-13 16:43:00,
2013-01-13 10:58:00,27.6,26.0,29.97,NNW,336,0.0,-999.0,92,-99.99,,,0.00,weatherlink.com 1.10,2013-01-13 16:58:00,
2013-01-13 11:12:00,27.5,26.0,29.94,NNW,327,0.0,-999.0,92,-99.99,,,0.00,weatherlink.com 1.10,2013-01-13 17:12:00,
2013-01-13 11:27:00,27.3,25.0,29.95,NNW,331,0.0,-999.0,92,-99.99,,,0.00,weatherlink.com 1.10,2013-01-13 17:27:00,
2013-01-13 11:43:00,27.3,25.0,29.99,NNW,340,0.0,-999.0,92,-99.99,,,0.00,weatherlink.com 1.10,2013-01-13 17:43:00,
2013-01-13 11:58:00,27.0,25.0,30.02,West,274,0.0,-999.0,92,-99.99,,,0.00,weatherlink.com 1.10,2013-01-13 17:58:00,
2013-01-13 12:13:00,26.4,24.0,30.00,NW,323,0.0,-999.0,92,-99.99,,,0.00,weatherlink.com 1.10,2013-01-13 18:13:00,
2013-01-13 12:28:00,25.9,24.0,30.02,NW,321,0.0,-999.0,92,-99.99,,,0.00,weatherlink.com 1.10,2013-01-13 18:28:00,
2013-01-13 12:43:00,25.9,24.0,29.99,NW,320,0.0,-999.0,92,-99.99,,,0.00,weatherlink.com 1.10,2013-01-13 18:43:00,
2013-01-13 12:58:00,25.9,24.0,29.99,NNW,331,0.0,-999.0,92,-99.99,,,0.00,weatherlink.com 1.10,2013-01-13 18:58:00,
2013-01-13 13:14:00,25.4,23.0,29.98,NW,316,0.0,-999.0,92,-99.99,,,0.00,weatherlink.com 1.10,2013-01-13 19:14:00,
2013-01-13 13:29:00,25.5,23.0,30.00,NNW,334,0.0,-999.0,91,-99.99,,,0.00,weatherlink.com 1.10,2013-01-13 19:29:00,
2013-01-13 13:44:00,25.4,23.0,30.01,WNW,301,0.0,-999.0,91,-99.99,,,0.00,weatherlink.com 1.10,2013-01-13 19:44:00,
2013-01-13 13:59:00,25.2,23.0,30.03,NW,320,0.0,-999.0,91,-99.99,,,0.00,weatherlink.com 1.10,2013-01-13 19:59:00,
2013-01-13 14:14:00,24.8,23.0,30.00,North,9,0.0,-999.0,91,-99.99,,,0.00,weatherlink.com 1.10,2013-01-13 20:14:00,
2013-01-13 14:44:00,24.4,22.0,30.03,WNW,298,0.0,-999.0,89,-99.99,,,0.00,weatherlink.com 1.10,2013-01-13 20:44:00,
2013-01-13 14:59:00,24.2,22.0,30.04,NW,309,0.0,-999.0,89,-99.99,,,0.00,weatherlink.com 1.10,2013-01-13 20:59:00,
2013-01-13 15:13:00,24.0,21.0,30.06,NW,322,0.0,-999.0,89,-99.99,,,0.00,weatherlink.com 1.10,2013-01-13 21:13:00,
2013-01-13 15:29:00,23.4,20.0,30.07,NNW,327,0.0,-999.0,88,-99.99,,,0.00,weatherlink.com 1.10,2013-01-13 21:29:00,
2013-01-13 15:44:00,23.2,20.0,30.08,NW,317,0.0,-999.0,88,-99.99,,,0.00,weatherlink.com 1.10,2013-01-13 21:44:00,
2013-01-13 15:59:00,22.8,20.0,30.10,NW,322,0.0,-999.0,87,-99.99,,,0.00,weatherlink.com 1.10,2013-01-13 21:59:00,
2013-01-13 16:13:00,22.4,19.0,30.10,NW,313,0.0,-999.0,85,-99.99,,,0.00,weatherlink.com 1.10,2013-01-13 22:13:00,
2013-01-13 16:28:00,22.1,18.0,30.11,NW,317,0.0,-999.0,84,-99.99,,,0.00,weatherlink.com 1.10,2013-01-13 22:28:00,
2013-01-13 16:43:00,21.9,18.0,30.13,WNW,296,0.0,-999.0,84,-99.99,,,0.00,weatherlink.com 1.10,2013-01-13 22:43:00,
2013-01-13 16:58:00,22.0,19.0,30.13,West,269,0.0,-999.0,86,-99.99,,,0.00,weatherlink.com 1.10,2013-01-13 22:58:00,
2013-01-13 17:14:00,22.0,19.0,30.14,West,281,0.0,-999.0,86,-99.99,,,0.00,weatherlink.com 1.10,2013-01-13 23:14:00,
2013-01-13 17:29:00,21.7,18.0,30.15,West,273,0.0,-999.0,85,-99.99,,,0.00,weatherlink.com 1.10,2013-01-13 23:29:00,
2013-01-13 17:44:00,21.5,18.0,30.16,NW,320,0.0,-999.0,85,-99.99,,,0.00,weatherlink.com 1.10,2013-01-13 23:44:00,
2013-01-13 17:59:00,21.4,17.0,30.16,WNW,294,0.0,-999.0,84,-99.99,,,0.00,weatherlink.com 1.10,2013-01-13 23:59:00,
2013-01-13 18:14:00,21.1,17.0,30.17,NW,304,0.0,-999.0,84,-99.99,,,0.00,weatherlink.com 1.10,2013-01-14 00:14:00,
2013-01-13 18:29:00,21.0,17.0,30.18,NW,325,0.0,-999.0,84,-99.99,,,0.00,weatherlink.com 1.10,2013-01-14 00:29:00,
2013-01-13 18:45:00,20.8,17.0,30.19,NW,325,0.0,-999.0,84,-99.99,,,0.00,weatherlink.com 1.10,2013-01-14 00:45:00,
2013-01-13 19:00:00,20.9,17.0,30.19,West,275,0.0,-999.0,85,-99.99,,,0.00,weatherlink.com 1.10,2013-01-14 01:00:00,
2013-01-13 19:14:00,20.8,17.0,30.20,NW,305,0.0,-999.0,84,-99.99,,,0.00,weatherlink.com 1.10,2013-01-14 01:14:00,
2013-01-13 19:29:00,20.7,17.0,30.20,WNW,302,0.0,-999.0,85,-99.99,,,0.00,weatherlink.com 1.10,2013-01-14 01:29:00,
2013-01-13 19:44:00,20.3,16.0,30.20,NW,305,0.0,-999.0,84,-99.99,,,0.00,weatherlink.com 1.10,2013-01-14 01:44:00,
2013-01-13 19:59:00,19.9,16.0,30.20,NW,312,0.0,-999.0,84,-99.99,,,0.00,weatherlink.com 1.10,2013-01-14 01:59:00,
2013-01-13 20:15:00,19.1,15.0,30.21,NW,325,0.0,-999.0,82,-99.99,,,0.00,weatherlink.com 1.10,2013-01-14 02:15:00,
2013-01-13 20:30:00,18.9,15.0,30.22,West,281,0.0,-999.0,83,-99.99,,,0.00,weatherlink.com 1.10,2013-01-14 02:30:00,
2013-01-13 20:45:00,18.8,14.0,30.23,WNW,294,0.0,-999.0,82,-99.99,,,0.00,weatherlink.com 1.10,2013-01-14 02:45:00,
2013-01-13 21:00:00,18.4,14.0,30.23,NW,312,0.0,-999.0,83,-99.99,,,0.00,weatherlink.com 1.10,2013-01-14 03:00:00,
2013-01-13 21:15:00,18.0,13.0,30.23,NNW,346,0.0,-999.0,82,-99.99,,,0.00,weatherlink.com 1.10,2013-01-14 03:15:00,
2013-01-13 21:30:00,17.9,13.0,30.23,NW,304,0.0,-999.0,82,-99.99,,,0.00,weatherlink.com 1.10,2013-01-14 03:30:00,
2013-01-13 21:45:00,17.5,13.0,30.24,NW,312,0.0,-999.0,82,-99.99,,,0.00,weatherlink.com 1.10,2013-01-14 03:45:00,
2013-01-13 22:00:00,17.1,12.0,30.25,NW,319,0.0,-999.0,81,-99.99,,,0.00,weatherlink.com 1.10,2013-01-14 04:00:00,
2013-01-13 22:14:00,17.0,12.0,30.25,NW,316,0.0,-999.0,82,-99.99,,,0.00,weatherlink.com 1.10,2013-01-14 04:14:00,
2013-01-13 22:29:00,16.8,12.0,30.28,NW,324,0.0,-999.0,82,-99.99,,,0.00,weatherlink.com 1.10,2013-01-14 04:29:00,
2013-01-13 22:44:00,16.6,12.0,30.27,WNW,300,0.0,-999.0,82,-99.99,,,0.00,weatherlink.com 1.10,2013-01-14 04:44:00,
2013-01-13 22:59:00,16.4,12.0,30.29,NW,315,0.0,-999.0,82,-99.99,,,0.00,weatherlink.com 1.10,2013-01-14 04:59:00,
2013-01-13 23:15:00,16.3,12.0,30.29,WNW,302,0.0,-999.0,82,-99.99,,,0.00,weatherlink.com 1.10,2013-01-14 05:15:00,
2013-01-13 23:30:00,16.1,11.0,30.29,WNW,284,0.0,-999.0,81,-99.99,,,0.00,weatherlink.com 1.10,2013-01-14 05:30:00,
2013-01-13 23:45:00,15.9,11.0,30.30,NW,306,0.0,-999.0,82,-99.99,,,0.00,weatherlink.com 1.10,2013-01-14 05:45:00,